EWG3CA LSZH-LEPA

Flight info

Callsign EWG3CA
Flight time 1h 32m
Altitude 37000
Route VEBIT T50 ROTOS Z669 ULMES DCT VADAR DCT GEVEA DCT INCUS DCT BALSI DCT RETNO DCT TUPOX DCT MTG DCT DIVKO DCT VATIR DCT PIVUS DCT BODEQ DCT VERSO L129 LUNIK
Aircraft A321/M-SDE3FGHIRWY/LB1

Departure

Time 2026-05-06 16:42
Airport Zürich Airport (LSZH)

Arrival

Time 2026-05-06 18:14
Airport Palma de Mallorca Airport (LEPA)
Time Latitude Longitude Altitude Speed Heading
2026-05-06 16:08 47.45335 8.55857 1383 ft 0 kts
2026-05-06 16:30 47.45319 8.55855 1383 ft 2 kts
2026-05-06 16:30 47.45309 8.55853 1383 ft 2 kts
2026-05-06 16:31 47.45294 8.55853 1383 ft 2 kts 347°
2026-05-06 16:31 47.45280 8.55860 1383 ft 2 kts 333°
2026-05-06 16:31 47.45267 8.55873 1383 ft 2 kts 317°
2026-05-06 16:31 47.45258 8.55889 1383 ft 2 kts 301°
2026-05-06 16:32 47.45251 8.55910 1383 ft 2 kts 285°
2026-05-06 16:32 47.45250 8.55922 1383 ft 1 kts 276°
2026-05-06 16:32 47.45249 8.55928 1383 ft 0 kts 277°
2026-05-06 16:35 47.45250 8.55924 1383 ft 0 kts 277°
2026-05-06 16:35 47.45250 8.55915 1383 ft 1 kts 276°
2026-05-06 16:35 47.45253 8.55881 1383 ft 4 kts 277°
2026-05-06 16:35 47.45258 8.55815 1383 ft 9 kts 277°
2026-05-06 16:36 47.45266 8.55716 1383 ft 9 kts 277°
2026-05-06 16:36 47.45274 8.55618 1383 ft 9 kts 275°
2026-05-06 16:36 47.45292 8.55518 1383 ft 10 kts 298°
2026-05-06 16:36 47.45330 8.55425 1383 ft 10 kts 313°
2026-05-06 16:37 47.45398 8.55373 1383 ft 11 kts 336°
2026-05-06 16:37 47.45471 8.55321 1383 ft 11 kts 334°
2026-05-06 16:37 47.45547 8.55266 1383 ft 12 kts 334°
2026-05-06 16:37 47.45625 8.55214 1383 ft 11 kts 343°
2026-05-06 16:38 47.45677 8.55263 1383 ft 10 kts 94°
2026-05-06 16:38 47.45673 8.55372 1383 ft 10 kts 95°
2026-05-06 16:38 47.45665 8.55481 1383 ft 11 kts 96°
2026-05-06 16:38 47.45654 8.55631 1383 ft 17 kts 95°
2026-05-06 16:39 47.45640 8.55845 1383 ft 23 kts 96°
2026-05-06 16:39 47.45625 8.56074 1383 ft 21 kts 96°
2026-05-06 16:39 47.45609 8.56288 1383 ft 20 kts 96°
2026-05-06 16:39 47.45594 8.56490 1383 ft 18 kts 96°
2026-05-06 16:40 47.45581 8.56676 1383 ft 17 kts 97°
2026-05-06 16:40 47.45567 8.56856 1383 ft 16 kts 95°
2026-05-06 16:40 47.45588 8.56994 1383 ft 13 kts 37°
2026-05-06 16:40 47.45657 8.56983 1386 ft 9 kts 316°
2026-05-06 16:41 47.45665 8.56941 1386 ft 0 kts 277°
2026-05-06 16:41 47.45670 8.56883 1386 ft 30 kts 276°
2026-05-06 16:42 47.45714 8.56187 1380 ft 102 kts 278°
2026-05-06 16:42 47.45815 8.54829 1384 ft 160 kts 275°
2026-05-06 16:42 47.45963 8.53105 1829 ft 173 kts 276°
2026-05-06 16:42 47.46112 8.51298 2370 ft 181 kts 276°
2026-05-06 16:43 47.46271 8.49423 3021 ft 186 kts 276°
2026-05-06 16:43 47.46298 8.47556 3625 ft 181 kts 261°
2026-05-06 16:43 47.45722 8.45819 4052 ft 187 kts 225°
2026-05-06 16:43 47.44576 8.44757 4428 ft 196 kts 211°
2026-05-06 16:44 47.43310 8.43754 4741 ft 209 kts 214°
2026-05-06 16:44 47.42223 8.42191 4997 ft 223 kts 239°
2026-05-06 16:44 47.41448 8.40030 5215 ft 245 kts 244°
2026-05-06 16:44 47.40539 8.37600 5545 ft 266 kts 241°
2026-05-06 16:45 47.39533 8.35179 6108 ft 276 kts 238°
2026-05-06 16:45 47.38485 8.32818 6901 ft 278 kts 238°
2026-05-06 16:45 47.37467 8.30371 7761 ft 277 kts 240°
2026-05-06 16:45 47.36568 8.27968 8764 ft 270 kts 242°
2026-05-06 16:46 47.35708 8.25535 9572 ft 270 kts 243°
2026-05-06 16:46 47.34840 8.23066 10299 ft 273 kts 243°
2026-05-06 16:46 47.33946 8.20533 10713 ft 287 kts 243°
2026-05-06 16:46 47.32961 8.17754 11044 ft 305 kts 242°
2026-05-06 16:47 47.31895 8.14757 11389 ft 321 kts 242°
2026-05-06 16:47 47.30765 8.11581 11928 ft 331 kts 242°
2026-05-06 16:47 47.29584 8.08258 12676 ft 334 kts 242°
2026-05-06 16:47 47.28447 8.05065 13342 ft 338 kts 242°
2026-05-06 16:48 47.27304 8.01830 14036 ft 340 kts 243°
2026-05-06 16:48 47.26295 7.98571 14690 ft 344 kts 246°
2026-05-06 16:48 47.25363 7.95249 15238 ft 350 kts 247°
2026-05-06 16:48 47.24437 7.91932 15778 ft 354 kts 246°
2026-05-06 16:49 47.23476 7.88498 16326 ft 359 kts 246°
2026-05-06 16:49 47.22519 7.85084 16865 ft 363 kts 246°
2026-05-06 16:49 47.21548 7.81629 17385 ft 368 kts 245°
2026-05-06 16:49 47.20568 7.78146 17904 ft 372 kts 245°
2026-05-06 16:50 47.19510 7.74698 18392 ft 375 kts 241°
2026-05-06 16:50 47.18202 7.71359 18926 ft 377 kts 235°
2026-05-06 16:50 47.16678 7.68238 19452 ft 379 kts 231°
2026-05-06 16:50 47.15597 7.66212 19782 ft 381 kts 230°
2026-05-06 16:51 47.13388 7.62131 20430 ft 386 kts 230°
2026-05-06 16:51 47.11722 7.59064 20922 ft 389 kts 230°
2026-05-06 16:51 47.10046 7.55972 21428 ft 392 kts 229°
2026-05-06 16:51 47.08348 7.52841 21911 ft 394 kts 229°
2026-05-06 16:52 47.06634 7.49684 22348 ft 398 kts 229°
2026-05-06 16:52 47.04884 7.46460 22792 ft 401 kts 229°
2026-05-06 16:52 47.03110 7.43196 23226 ft 404 kts 229°
2026-05-06 16:52 47.01351 7.39967 23633 ft 408 kts 229°
2026-05-06 16:53 46.99575 7.36723 24037 ft 411 kts 229°
2026-05-06 16:53 46.97779 7.33447 24423 ft 414 kts 228°
2026-05-06 16:53 46.95984 7.30178 24850 ft 415 kts 228°
2026-05-06 16:53 46.94182 7.26893 25285 ft 415 kts 228°
2026-05-06 16:54 46.92381 7.23609 25691 ft 416 kts 229°
2026-05-06 16:54 46.90578 7.20320 26103 ft 416 kts 229°
2026-05-06 16:54 46.88631 7.16773 26521 ft 417 kts 229°
2026-05-06 16:54 46.86652 7.13174 26941 ft 418 kts 229°
2026-05-06 16:55 46.84618 7.09481 27304 ft 420 kts 229°
2026-05-06 16:55 46.82552 7.05732 27705 ft 421 kts 229°
2026-05-06 16:55 46.80526 7.02061 28096 ft 421 kts 229°
2026-05-06 16:55 46.78493 6.98387 28438 ft 423 kts 229°
2026-05-06 16:56 46.76465 6.94725 28732 ft 425 kts 229°
2026-05-06 16:56 46.74438 6.91068 29046 ft 427 kts 229°
2026-05-06 16:56 46.72412 6.87416 29459 ft 425 kts 229°
2026-05-06 16:56 46.70423 6.83837 29895 ft 423 kts 229°
2026-05-06 16:57 46.68408 6.80219 30295 ft 421 kts 229°
2026-05-06 16:57 46.66445 6.76713 30695 ft 419 kts 228°
2026-05-06 16:57 46.64397 6.73344 31047 ft 416 kts 225°
2026-05-06 16:57 46.62264 6.70026 31396 ft 415 kts 225°
2026-05-06 16:58 46.60153 6.66741 31715 ft 414 kts 225°
2026-05-06 16:58 46.58033 6.63448 31997 ft 414 kts 225°
2026-05-06 16:58 46.55932 6.60188 32273 ft 414 kts 225°
2026-05-06 16:58 46.53854 6.56967 32537 ft 414 kts 225°
2026-05-06 16:59 46.51763 6.53732 32814 ft 413 kts 225°
2026-05-06 16:59 46.49660 6.50481 33086 ft 413 kts 226°
2026-05-06 16:59 46.47551 6.47227 33334 ft 413 kts 226°
2026-05-06 16:59 46.45458 6.44000 33586 ft 412 kts 226°
2026-05-06 17:00 46.43379 6.40799 33851 ft 412 kts 226°
2026-05-06 17:00 46.41291 6.37588 34124 ft 410 kts 226°
2026-05-06 17:00 46.39229 6.34419 34332 ft 410 kts 225°
2026-05-06 17:00 46.37149 6.31229 34622 ft 410 kts 225°
2026-05-06 17:01 46.35072 6.28045 34717 ft 410 kts 225°
2026-05-06 17:01 46.32988 6.24857 34909 ft 410 kts 225°
2026-05-06 17:01 46.30838 6.21675 35308 ft 410 kts 222°
2026-05-06 17:02 46.25902 6.16336 35654 ft 412 kts 211°
2026-05-06 17:02 46.23257 6.14351 35539 ft 413 kts 205°
2026-05-06 17:02 46.20499 6.12786 35687 ft 416 kts 199°
2026-05-06 17:02 46.17609 6.11636 36108 ft 418 kts 194°
2026-05-06 17:03 46.14590 6.10861 36280 ft 419 kts 191°
2026-05-06 17:03 46.11557 6.10176 36398 ft 421 kts 191°
2026-05-06 17:03 46.08441 6.09485 36520 ft 422 kts 191°
2026-05-06 17:03 46.05329 6.08797 36638 ft 423 kts 191°
2026-05-06 17:04 46.02211 6.08107 36573 ft 424 kts 191°
2026-05-06 17:04 45.99052 6.07407 36718 ft 425 kts 191°
2026-05-06 17:04 45.95911 6.06710 36909 ft 425 kts 191°
2026-05-06 17:05 45.89565 6.05306 36926 ft 426 kts 191°
2026-05-06 17:05 45.83239 6.03908 36840 ft 425 kts 191°
2026-05-06 17:06 45.76909 6.02507 37046 ft 425 kts 191°
2026-05-06 17:06 45.73774 6.01815 36806 ft 423 kts 191°
2026-05-06 17:06 45.70743 6.01147 36834 ft 424 kts 191°
2026-05-06 17:06 45.67701 6.00477 36979 ft 424 kts 191°
2026-05-06 17:07 45.64592 5.99793 36944 ft 424 kts 191°
2026-05-06 17:07 45.58491 5.98455 36928 ft 424 kts 191°
2026-05-06 17:08 45.52418 5.97124 36925 ft 424 kts 191°
2026-05-06 17:08 45.46273 5.95635 36928 ft 422 kts 194°
2026-05-06 17:09 45.40159 5.93717 36941 ft 421 kts 195°
2026-05-06 17:09 45.34153 5.91852 36947 ft 420 kts 195°
2026-05-06 17:10 45.28219 5.90004 36941 ft 420 kts 195°
2026-05-06 17:10 45.22419 5.88200 36934 ft 420 kts 195°
2026-05-06 17:11 45.16662 5.86415 36936 ft 420 kts 195°
2026-05-06 17:11 45.10920 5.84636 36937 ft 419 kts 195°
2026-05-06 17:12 45.05212 5.82871 36934 ft 420 kts 195°
2026-05-06 17:12 44.99491 5.81111 36939 ft 420 kts 195°
2026-05-06 17:13 44.93799 5.79359 36947 ft 418 kts 195°
2026-05-06 17:13 44.88121 5.77617 36950 ft 418 kts 195°
2026-05-06 17:14 44.82462 5.75881 36949 ft 418 kts 196°
2026-05-06 17:14 44.76767 5.74137 36951 ft 418 kts 196°
2026-05-06 17:15 44.71081 5.72401 36943 ft 417 kts 196°
2026-05-06 17:15 44.65445 5.70684 36946 ft 417 kts 196°
2026-05-06 17:16 44.59774 5.68961 36941 ft 417 kts 196°
2026-05-06 17:16 44.54101 5.67240 36932 ft 417 kts 196°
2026-05-06 17:17 44.48446 5.65528 36936 ft 417 kts 196°
2026-05-06 17:17 44.42801 5.63822 36938 ft 417 kts 196°
2026-05-06 17:18 44.37217 5.61759 36927 ft 414 kts 201°
2026-05-06 17:18 44.31840 5.58979 36930 ft 412 kts 205°
2026-05-06 17:19 44.26520 5.56074 36919 ft 412 kts 205°
2026-05-06 17:19 44.21203 5.53174 36833 ft 412 kts 205°
2026-05-06 17:20 44.15874 5.50268 36892 ft 413 kts 205°
2026-05-06 17:20 44.10526 5.47355 36915 ft 414 kts 205°
2026-05-06 17:21 44.05162 5.44444 36902 ft 413 kts 205°
2026-05-06 17:21 43.99813 5.41539 36918 ft 413 kts 205°
2026-05-06 17:22 43.94496 5.38660 36919 ft 412 kts 205°
2026-05-06 17:22 43.89165 5.35778 36915 ft 412 kts 205°
2026-05-06 17:23 43.83756 5.32856 36924 ft 413 kts 204°
2026-05-06 17:23 43.78361 5.29949 36930 ft 412 kts 204°
2026-05-06 17:24 43.72881 5.27001 36909 ft 412 kts 204°
2026-05-06 17:24 43.67329 5.24021 36911 ft 412 kts 205°
2026-05-06 17:25 43.61769 5.21042 36924 ft 412 kts 205°
2026-05-06 17:25 43.56316 5.18127 36919 ft 412 kts 205°
2026-05-06 17:26 43.50859 5.15213 36922 ft 411 kts 205°
2026-05-06 17:26 43.45490 5.12356 36923 ft 412 kts 205°
2026-05-06 17:27 43.40203 5.09219 36931 ft 409 kts 210°
2026-05-06 17:27 43.35189 5.05373 36924 ft 407 kts 215°
2026-05-06 17:28 43.30420 5.00953 36918 ft 406 kts 217°
2026-05-06 17:28 43.25741 4.96563 36918 ft 405 kts 217°
2026-05-06 17:29 43.21056 4.92167 36915 ft 405 kts 217°
2026-05-06 17:29 43.16354 4.87762 36929 ft 405 kts 217°
2026-05-06 17:30 43.11656 4.83361 36921 ft 406 kts 217°
2026-05-06 17:30 43.06935 4.78967 36929 ft 406 kts 216°
2026-05-06 17:31 43.02019 4.75010 36929 ft 408 kts 212°
2026-05-06 17:31 42.97030 4.71216 36924 ft 407 kts 213°
2026-05-06 17:32 42.92072 4.67454 36926 ft 408 kts 213°
2026-05-06 17:32 42.87104 4.63696 36936 ft 407 kts 213°
2026-05-06 17:33 42.82144 4.59950 36943 ft 406 kts 213°
2026-05-06 17:33 42.77195 4.56223 36947 ft 406 kts 213°
2026-05-06 17:34 42.72271 4.52520 36947 ft 406 kts 213°
2026-05-06 17:34 42.67291 4.48783 36945 ft 406 kts 213°
2026-05-06 17:35 42.62340 4.45073 36956 ft 405 kts 213°
2026-05-06 17:35 42.57420 4.41395 36954 ft 405 kts 213°
2026-05-06 17:36 42.50007 4.35864 36948 ft 406 kts 213°
2026-05-06 17:36 42.45038 4.32166 36954 ft 406 kts 212°
2026-05-06 17:37 42.40064 4.28468 36954 ft 405 kts 212°
2026-05-06 17:37 42.35107 4.24794 36962 ft 404 kts 212°
2026-05-06 17:38 42.30123 4.21106 36969 ft 404 kts 212°
2026-05-06 17:38 42.25137 4.17418 36961 ft 404 kts 212°
2026-05-06 17:39 42.20190 4.13769 36959 ft 404 kts 212°
2026-05-06 17:39 42.15243 4.10127 36959 ft 404 kts 213°
2026-05-06 17:40 42.10316 4.06507 36958 ft 403 kts 212°
2026-05-06 17:40 42.05391 4.02895 36967 ft 403 kts 213°
2026-05-06 17:41 42.00448 3.99276 36962 ft 403 kts 212°
2026-05-06 17:41 41.95391 3.96022 36969 ft 405 kts 207°
2026-05-06 17:42 41.90057 3.93450 36964 ft 409 kts 202°
2026-05-06 17:42 41.84491 3.91604 36960 ft 414 kts 197°
2026-05-06 17:43 41.78791 3.90267 36970 ft 414 kts 196°
2026-05-06 17:43 41.73111 3.88945 36964 ft 414 kts 195°
2026-05-06 17:44 41.67402 3.87623 36966 ft 413 kts 196°
2026-05-06 17:44 41.61739 3.86319 36970 ft 412 kts 196°
2026-05-06 17:45 41.56030 3.85006 36956 ft 414 kts 196°
2026-05-06 17:45 41.50358 3.83704 36960 ft 413 kts 196°
2026-05-06 17:46 41.44692 3.82408 36954 ft 413 kts 196°
2026-05-06 17:46 41.38987 3.81104 36939 ft 413 kts 196°
2026-05-06 17:47 41.33334 3.79814 36946 ft 413 kts 196°
2026-05-06 17:47 41.27636 3.78515 36942 ft 413 kts 196°
2026-05-06 17:48 41.21933 3.77219 36950 ft 413 kts 196°
2026-05-06 17:48 41.16294 3.75671 36947 ft 409 kts 200°
2026-05-06 17:49 41.10894 3.73420 36956 ft 405 kts 206°
2026-05-06 17:49 41.05635 3.70716 36972 ft 405 kts 206°
2026-05-06 17:50 41.00363 3.68014 36969 ft 404 kts 207°
2026-05-06 17:50 40.95104 3.65316 36969 ft 403 kts 206°
2026-05-06 17:51 40.89844 3.62619 36967 ft 403 kts 207°
2026-05-06 17:51 40.84591 3.59928 36967 ft 403 kts 207°
2026-05-06 17:52 40.79342 3.57245 36838 ft 404 kts 207°
2026-05-06 17:52 40.76736 3.55916 36593 ft 401 kts 207°
2026-05-06 17:52 40.74150 3.54596 36359 ft 398 kts 207°
2026-05-06 17:53 40.71572 3.53282 36159 ft 395 kts 207°
2026-05-06 17:53 40.69000 3.51975 35976 ft 391 kts 207°
2026-05-06 17:53 40.66509 3.50708 35646 ft 387 kts 207°
2026-05-06 17:53 40.64017 3.49439 35118 ft 387 kts 207°
2026-05-06 17:54 40.61483 3.48149 34532 ft 388 kts 207°
2026-05-06 17:54 40.59000 3.46887 33812 ft 389 kts 207°
2026-05-06 17:54 40.56460 3.45593 33037 ft 390 kts 207°
2026-05-06 17:54 40.53963 3.44324 32226 ft 393 kts 207°
2026-05-06 17:55 40.51412 3.43032 31366 ft 396 kts 207°
2026-05-06 17:55 40.48843 3.41733 30461 ft 400 kts 206°
2026-05-06 17:55 40.46150 3.40625 29526 ft 409 kts 200°
2026-05-06 17:55 40.43333 3.39894 28586 ft 417 kts 194°
2026-05-06 17:56 40.40443 3.39568 27869 ft 420 kts 188°
2026-05-06 17:56 40.37563 3.39615 27321 ft 417 kts 185°
2026-05-06 17:56 40.34689 3.39761 26733 ft 412 kts 185°
2026-05-06 17:56 40.31914 3.39349 26018 ft 397 kts 202°
2026-05-06 17:57 40.29486 3.37798 25408 ft 386 kts 214°
2026-05-06 17:57 40.27188 3.36028 25043 ft 385 kts 214°
2026-05-06 17:57 40.24860 3.34256 24469 ft 384 kts 213°
2026-05-06 17:57 40.22565 3.32539 23780 ft 384 kts 213°
2026-05-06 17:58 40.20240 3.30818 23038 ft 386 kts 213°
2026-05-06 17:58 40.17915 3.29112 22286 ft 387 kts 212°
2026-05-06 17:58 40.15548 3.27386 21515 ft 389 kts 212°
2026-05-06 17:58 40.13179 3.25665 20746 ft 391 kts 212°
2026-05-06 17:59 40.10771 3.23919 19961 ft 393 kts 212°
2026-05-06 17:59 40.08389 3.22195 19187 ft 394 kts 212°
2026-05-06 17:59 40.05950 3.20436 18408 ft 395 kts 212°
2026-05-06 17:59 40.03509 3.18677 17829 ft 391 kts 212°
2026-05-06 18:00 40.01041 3.16902 17343 ft 384 kts 212°
2026-05-06 18:00 39.98625 3.15170 17007 ft 365 kts 212°
2026-05-06 18:00 39.96281 3.13486 16213 ft 361 kts 212°
2026-05-06 18:00 39.93933 3.11795 15358 ft 357 kts 212°
2026-05-06 18:01 39.91770 3.09714 14498 ft 350 kts 229°
2026-05-06 18:01 39.90204 3.07028 14037 ft 342 kts 236°
2026-05-06 18:01 39.88856 3.04453 13598 ft 337 kts 237°
2026-05-06 18:01 39.87534 3.01884 13082 ft 336 kts 237°
2026-05-06 18:02 39.86160 2.99420 12557 ft 335 kts 233°
2026-05-06 18:02 39.84669 2.96985 12052 ft 334 kts 232°
2026-05-06 18:02 39.83161 2.94565 11553 ft 332 kts 232°
2026-05-06 18:02 39.81624 2.92101 11032 ft 331 kts 232°
2026-05-06 18:03 39.80150 2.89733 10559 ft 329 kts 232°
2026-05-06 18:03 39.78740 2.87466 10361 ft 319 kts 232°
2026-05-06 18:03 39.77351 2.85234 10160 ft 307 kts 232°
2026-05-06 18:03 39.76037 2.83123 9911 ft 294 kts 232°
2026-05-06 18:04 39.74793 2.81129 9618 ft 279 kts 232°
2026-05-06 18:04 39.73558 2.79154 9198 ft 276 kts 232°
2026-05-06 18:04 39.72360 2.77233 8837 ft 275 kts 232°
2026-05-06 18:04 39.71169 2.75322 8461 ft 273 kts 232°
2026-05-06 18:05 39.69969 2.73395 7988 ft 272 kts 232°
2026-05-06 18:05 39.68774 2.71476 7528 ft 272 kts 232°
2026-05-06 18:05 39.67529 2.69470 7160 ft 270 kts 232°
2026-05-06 18:05 39.66347 2.67565 6807 ft 270 kts 232°
2026-05-06 18:06 39.65165 2.65652 6458 ft 269 kts 232°
2026-05-06 18:06 39.64000 2.63763 6120 ft 268 kts 232°
2026-05-06 18:06 39.62832 2.61872 6005 ft 268 kts 232°
2026-05-06 18:06 39.61646 2.59964 6003 ft 270 kts 232°
2026-05-06 18:07 39.60438 2.58031 5999 ft 275 kts 232°
2026-05-06 18:07 39.59184 2.56018 5998 ft 277 kts 232°
2026-05-06 18:07 39.57891 2.53957 5994 ft 275 kts 232°
2026-05-06 18:07 39.56657 2.51998 5994 ft 274 kts 232°
2026-05-06 18:08 39.55430 2.50042 5975 ft 271 kts 232°
2026-05-06 18:08 39.54253 2.48162 5682 ft 269 kts 232°
2026-05-06 18:08 39.53072 2.46269 5306 ft 270 kts 232°
2026-05-06 18:08 39.51885 2.44353 4949 ft 271 kts 232°
2026-05-06 18:09 39.50706 2.42437 4589 ft 271 kts 232°
2026-05-06 18:09 39.49435 2.40595 4209 ft 272 kts 218°
2026-05-06 18:09 39.47739 2.39590 3865 ft 269 kts 189°
2026-05-06 18:09 39.45897 2.39748 3596 ft 261 kts 159°
2026-05-06 18:10 39.44414 2.40997 3431 ft 250 kts 130°
2026-05-06 18:10 39.43653 2.42953 3268 ft 239 kts 101°
2026-05-06 18:10 39.43452 2.45129 3083 ft 233 kts 91°
2026-05-06 18:10 39.43687 2.47318 2986 ft 232 kts 73°
2026-05-06 18:11 39.44338 2.49245 2983 ft 233 kts 62°
2026-05-06 18:11 39.44900 2.50453 2916 ft 235 kts 58°
2026-05-06 18:11 39.46142 2.52922 2760 ft 252 kts 58°
2026-05-06 18:11 39.47086 2.54857 2629 ft 251 kts 59°
2026-05-06 18:12 39.48005 2.56804 2488 ft 254 kts 60°
2026-05-06 18:12 39.48903 2.58726 2192 ft 248 kts 60°
2026-05-06 18:12 39.49788 2.60616 1867 ft 239 kts 60°
2026-05-06 18:12 39.50650 2.62449 1550 ft 231 kts 59°
2026-05-06 18:13 39.51475 2.64202 1242 ft 219 kts 59°
2026-05-06 18:13 39.52256 2.65861 1027 ft 204 kts 59°
2026-05-06 18:13 39.52983 2.67404 768 ft 190 kts 59°
2026-05-06 18:13 39.53654 2.68827 492 ft 180 kts 58°
2026-05-06 18:14 39.54314 2.70227 236 ft 168 kts 58°
2026-05-06 18:14 39.54963 2.71608 57 ft 148 kts 58°
2026-05-06 18:14 39.55500 2.72731 39 ft 103 kts 57°
2026-05-06 18:14 39.55792 2.73346 39 ft 47 kts 58°
2026-05-06 18:15 39.55974 2.73725 40 ft 28 kts 61°
2026-05-06 18:15 39.55981 2.73813 40 ft 12 kts 119°
2026-05-06 18:15 39.55917 2.73874 40 ft 9 kts 150°
2026-05-06 18:15 39.55902 2.73885 40 ft 1 kts 149°
2026-05-06 18:16 39.55884 2.73899 40 ft 3 kts 150°
2026-05-06 18:16 39.55851 2.73904 40 ft 5 kts 201°
2026-05-06 18:16 39.55820 2.73862 40 ft 6 kts 235°
2026-05-06 18:16 39.55792 2.73800 39 ft 8 kts 241°
2026-05-06 18:17 39.55757 2.73720 39 ft 10 kts 240°
2026-05-06 18:17 39.55715 2.73633 39 ft 11 kts 237°
2026-05-06 18:17 39.55667 2.73535 39 ft 12 kts 238°
2026-05-06 18:17 39.55581 2.73527 39 ft 12 kts 148°
2026-05-06 18:18 39.55494 2.73597 39 ft 14 kts 148°
2026-05-06 18:18 39.55399 2.73674 39 ft 14 kts 148°
2026-05-06 18:18 39.55298 2.73755 39 ft 15 kts 150°
2026-05-06 18:18 39.55192 2.73835 39 ft 16 kts 148°
2026-05-06 18:19 39.55084 2.73921 39 ft 16 kts 148°
2026-05-06 18:19 39.54973 2.74007 39 ft 17 kts 149°
2026-05-06 18:19 39.54880 2.74080 39 ft 11 kts 149°
2026-05-06 18:19 39.54821 2.74124 39 ft 8 kts 166°
2026-05-06 18:20 39.54769 2.74082 39 ft 9 kts 235°
2026-05-06 18:20 39.54727 2.73997 39 ft 11 kts 239°
2026-05-06 18:20 39.54671 2.73877 39 ft 15 kts 239°
2026-05-06 18:20 39.54617 2.73765 39 ft 10 kts 239°
2026-05-06 18:21 39.54606 2.73740 39 ft 2 kts 239°
2026-05-06 18:21 39.54581 2.73684 39 ft 9 kts 252°
2026-05-06 18:21 39.54620 2.73619 39 ft 3 kts 340°
2026-05-06 18:21 39.54646 2.73608 39 ft 4 kts 341°
2026-05-06 18:22 39.54680 2.73600 39 ft 4 kts 22°
2026-05-06 18:22 39.54691 2.73610 39 ft 1 kts 60°
2026-05-06 18:22 39.54697 2.73626 39 ft 2 kts 60°
2026-05-06 18:22 39.54709 2.73652 39 ft 1 kts 58°
2026-05-06 18:23 39.54712 2.73657 39 ft 0 kts 58°